SCP
3 5 7 7 6 6 6 5 4 4 3 3 3 3 3 3 3 3 2 2 2 1 1 1 1 1 0 0 0 0 0 0 0 0 0 0 0 0 0 0 0 1 1
3 4 5 6 6 6 6 5 4 3 3 3 3 3 3 3 3 3 3 2 2 1 1 1 1 1 1 0 0 0 0 0 0 1 1 0 0 0 0 0 0 1 1
3 3 4 5 5 6 5 4 3 3 2 3 3 3 4 4 4 4 3 3 3 2 1 1 1 1 1 1 0 0 1 0 1 1 1 1 1 1 0 0 0 1 1
2 2 3 4 4 5 5 5 4 3 3 2 2 3 3 4 4 4 4 4 3 2 1 1 1 1 1 1 1 1 1 1 1 1 1 1 1 1 1 0 0 0 1
2 2 3 3 3 4 4 5 4 4 3 2 2 2 3 3 3 3 3 3 3 3 2 1 1 1 1 1 1 1 1 1 1 1 1 1 1 1 1 0 0 0 1
2 2 3 3 3 3 4 5 5 4 3 2 2 2 2 2 2 2 2 2 2 2 2 1 1 1 1 1 1 1 1 1 1 1 1 1 1 1 1 0 0 0 0
2 2 3 3 3 3 4 5 5 4 3 3 2 2 2 2 2 1 1 2 2 2 2 2 1 1 1 1 1 2 1 1 1 1 1 1 1 1 1 1 0 0 0
2 3 3 3 3 2 3 4 5 4 3 3 3 2 2 2 2 2 2 2 2 2 2 2 2 2 2 2 1 2 2 2 1 1 1 1 1 1 1 1 0 0 0
3 3 3 3 2 2 3 4 5 5 4 3 3 2 2 2 3 3 2 2 2 2 2 2 2 2 2 2 1 1 1 1 1 1 1 1 1 1 1 1 1 1 0
4 4 4 3 2 2 2 4 5 5 4 3 3 2 2 2 2 2 2 2 2 2 2 2 3 3 2 2 1 1 1 1 1 1 1 1 1 1 1 1 1 1 1
5 5 5 4 3 2 2 3 4 4 4 3 3 2 2 2 2 2 2 2 2 2 2 3 3 3 3 2 1 1 1 1 1 1 1 1 1 1 1 1 1 1 1
7 6 5 4 4 3 3 3 4 4 4 3 3 2 2 2 2 2 2 2 2 2 3 3 4 4 4 3 2 2 2 1 1 1 1 2 2 2 2 2 2 2 2
10 8 6 5 4 4 4 3 3 3 4 3 3 2 2 2 2 2 2 2 3 3 3 4 5 5 5 4 2 2 2 2 2 2 2 2 3 3 3 3 3 3 3
13 10 8 7 7 6 5 5 4 5 5 4 3 3 2 2 2 3 3 3 3 3 4 5 6 6 5 4 3 2 2 2 3 3 3 3 4 4 4 4 4 4 4
14 12 10 9 9 8 7 7 7 7 6 5 4 3 3 3 3 3 4 4 4 4 4 5 6 6 5 4 3 3 3 3 3 4 4 4 4 4 4 4 4 4 4
13 12 10 9 8 7 8 8 9 8 7 6 5 4 4 3 3 3 4 5 4 4 4 4 5 4 4 3 3 3 3 4 4 4 4 4 4 4 4 3 3 3 3
11 10 9 8 6 6 6 7 9 9 8 7 7 6 5 4 3 3 4 5 4 4 4 4 4 4 4 3 3 2 3 3 4 3 3 3 3 3 3 2 2 2 2
10 9 8 8 7 6 6 6 8 9 9 9 9 9 7 5 4 4 5 5 5 4 4 4 4 4 3 3 2 2 2 3 3 2 2 2 2 2 2 2 2 2 2
11 10 9 9 9 8 7 7 8 9 10 11 12 12 9 7 6 6 6 6 5 5 5 6 6 5 4 3 1 1 1 2 2 1 1 1 1 1 1 1 2 2 2
10 10 9 9 8 7 7 7 8 9 10 12 14 14 11 8 7 7 7 8 7 7 7 7 7 7 6 4 2 1 2 2 2 1 1 1 1 1 1 1 1 2 2
7 7 7 6 6 5 6 7 8 8 9 12 14 14 11 8 7 7 8 8 9 8 8 7 7 7 6 4 3 2 2 2 2 2 2 2 1 1 1 1 1 1 1
5 5 5 6 5 6 6 7 8 8 9 11 11 10 8 7 7 7 8 8 8 8 7 7 6 6 5 4 3 2 1 1 2 3 3 2 1 1 0 0 1 1 0
6 6 7 7 7 7 7 7 7 7 8 9 8 7 7 7 7 8 8 8 8 7 7 7 6 6 5 5 3 2 1 1 1 2 2 2 2 1 0 0 0 0 0
7 7 9 9 8 7 6 5 5 6 7 7 7 7 7 8 8 8 8 8 8 8 8 8 7 6 5 4 4 3 2 1 1 1 2 1 1 1 1 1 1 1 1
7 8 9 9 7 6 5 4 5 6 7 7 8 9 9 9 8 8 8 7 8 8 8 7 7 6 4 3 3 2 2 2 2 1 1 2 1 1 1 2 3 3 3
7 7 8 7 6 5 4 4 6 7 8 9 10 10 10 9 8 7 7 6 6 6 5 5 5 4 3 2 2 1 2 2 2 2 2 2 2 2 2 2 3 4 5
Wind_Speed
9 9 10 10 9 7 7 6 6 5 4 2 2 2 1 1 1 1 2 2 2 3 3 2 2 2 2 2 2 2 1 0 1 1 1 2 1 1 2 2 2 3 3
8 9 9 9 9 8 7 6 6 5 4 3 2 2 2 2 2 1 1 2 2 3 3 3 2 2 2 1 1 1 1 0 1 2 1 1 3 2 1 1 2 2 2
12 12 11 10 9 9 9 8 7 6 5 4 2 2 1 1 1 0 1 2 2 2 2 3 3 2 2 2 1 1 2 1 1 2 3 2 2 2 2 1 2 2 2
11 11 11 11 11 10 9 8 7 6 6 5 4 4 3 2 3 2 2 1 1 2 2 2 2 2 2 2 2 2 2 2 1 1 1 2 3 2 1 2 1 2 2
13 13 12 12 11 10 9 8 7 6 6 5 5 4 3 3 2 1 1 1 1 1 2 3 2 2 2 2 2 1 2 2 2 2 1 1 1 1 2 2 2 2 2
12 11 10 9 8 9 8 8 7 6 6 6 5 5 5 4 3 2 2 1 1 1 1 2 2 2 2 2 2 2 2 2 2 2 1 2 1 2 2 3 2 2 2
10 11 10 10 9 9 9 8 8 6 6 6 6 6 6 5 5 4 3 3 2 1 2 2 2 2 2 2 2 2 2 2 2 2 2 2 2 2 2 2 2 1 2
10 11 12 11 10 10 9 9 8 7 7 6 6 5 5 4 4 4 4 4 3 3 3 3 3 3 2 2 2 2 2 1 2 2 2 1 2 2 2 3 3 1 1
10 10 10 10 10 10 10 10 9 8 7 7 6 5 5 4 4 4 3 3 3 3 3 3 3 3 3 3 2 2 1 1 2 2 1 1 1 1 1 2 3 4 2
8 8 8 9 9 9 9 9 9 8 7 6 6 5 5 4 4 4 4 3 3 3 3 3 3 2 2 2 2 2 1 1 2 1 1 1 1 1 1 1 1 2 3
8 8 7 7 7 7 7 7 7 7 6 6 5 4 4 4 4 4 4 4 3 3 3 3 3 2 2 2 2 2 2 2 2 2 1 1 1 0 1 0 1 1 2
8 8 7 7 7 7 7 7 7 7 7 6 6 5 4 4 4 4 3 3 3 3 3 3 3 2 2 2 3 3 3 2 2 2 1 1 1 0 0 0 1 1 2
6 6 6 7 7 7 7 7 7 7 7 6 6 5 4 4 4 4 4 3 3 3 2 3 3 3 3 2 2 3 3 2 2 2 2 2 1 1 1 1 1 1 1
7 7 6 6 6 6 6 6 6 6 6 6 6 5 6 5 5 4 4 4 3 3 3 3 3 3 3 2 2 2 2 2 2 2 2 2 2 2 2 1 1 1 1
6 7 7 6 5 5 5 5 5 5 6 6 6 6 5 5 4 4 4 4 3 3 3 3 3 2 2 2 2 3 3 2 2 1 2 2 2 2 2 2 2 2 1
5 5 5 5 5 5 5 5 5 5 6 6 6 5 4 4 4 4 4 3 3 3 2 3 3 3 2 3 3 3 3 3 3 2 1 2 2 2 2 2 2 3 3
6 5 5 5 5 5 5 5 6 5 5 5 5 4 5 5 5 5 4 4 3 3 2 2 3 2 2 3 3 3 3 3 3 3 2 1 1 1 1 2 1 1 2
6 5 5 5 4 3 4 4 4 5 5 5 4 4 4 4 4 4 4 4 3 3 3 3 2 2 2 2 3 3 3 2 2 3 3 2 1 1 1 0 0 1 2
6 5 5 5 3 3 3 3 3 4 4 4 4 4 4 4 4 4 4 4 3 3 3 3 3 2 2 2 2 3 2 1 1 1 1 2 2 2 1 1 0 2 3
4 4 4 3 3 2 3 4 3 3 4 4 5 4 5 5 5 5 4 3 3 3 3 2 3 3 2 2 3 3 2 1 1 1 1 2 1 1 2 2 1 1 3
5 4 4 3 2 3 4 4 3 4 4 3 3 3 3 3 3 3 2 3 3 3 3 3 2 2 2 2 3 3 2 2 1 1 1 1 1 1 1 2 2 3 2
5 5 4 2 2 3 4 3 3 3 3 3 3 3 2 2 2 2 2 3 3 3 3 2 1 0 1 1 2 3 2 2 2 2 2 1 1 2 1 1 1 1 0
5 4 5 3 2 2 4 4 4 4 4 4 3 2 2 2 2 2 2 1 2 2 2 2 2 1 1 1 1 1 1 2 2 2 2 1 1 1 1 1 1 0 1
4 4 4 4 2 2 2 3 4 4 6 5 3 3 3 2 1 1 1 2 2 2 2 3 2 2 1 1 0 0 1 1 1 1 1 0 1 0 1 1 0 0 1
3 4 4 4 3 2 2 2 3 5 6 5 4 3 3 3 2 1 1 1 2 3 4 3 3 3 3 3 3 2 2 2 2 1 1 1 1 1 1 1 1 0 0
2 3 3 3 3 2 2 1 2 5 6 4 4 3 3 3 3 2 1 3 0 1 3 3 3 2 3 3 3 4 3 3 4 3 1 1 1 2 2 1 1 1 1
Wind_Direction
175 164 162 158 154 153 151 149 151 157 145 132 128 121 141 160 159 186 178 167 159 150 142 147 143 140 149 165 154 148 142 167 132 93 7 341 334 228 221 210 194 198 194
167 167 165 163 163 165 162 157 161 163 160 161 160 159 162 174 177 182 174 175 159 158 160 156 163 160 150 140 127 131 133 210 150 144 119 354 340 318 262 206 193 199 186
175 174 175 172 169 172 172 170 169 168 170 166 144 119 79 56 67 151 196 203 176 166 160 163 167 161 159 173 184 159 152 198 262 165 154 164 222 290 316 267 217 200 193
175 177 175 175 178 179 176 170 171 171 173 164 158 163 165 181 205 200 199 214 185 168 165 168 168 159 154 174 196 157 163 163 228 261 219 194 171 169 280 317 283 234 214
177 179 179 179 178 175 174 173 170 173 173 174 174 171 182 196 202 178 181 209 215 188 180 175 167 167 171 185 184 164 164 177 193 213 228 229 193 165 168 252 291 300 259
180 178 176 171 172 173 173 171 171 179 179 177 178 179 185 188 183 189 190 210 220 242 225 176 169 176 182 189 193 194 187 195 198 206 192 180 179 201 182 212 242 255 267
175 173 171 171 174 175 176 174 173 183 184 181 185 187 186 182 185 189 193 194 205 222 230 205 187 192 196 193 185 187 205 207 207 217 218 211 210 196 178 176 214 247 277
173 176 177 173 172 173 174 174 179 183 183 183 191 191 185 181 187 188 185 190 198 211 213 199 201 200 196 196 183 184 205 207 223 233 222 217 229 200 185 176 167 189 299
173 175 173 172 174 173 175 177 179 185 189 190 189 190 188 186 190 192 188 191 203 206 202 198 197 200 196 190 177 188 204 203 226 234 222 217 238 222 211 183 171 167 201
166 171 173 175 178 177 175 176 177 184 187 189 193 194 194 195 193 189 196 198 205 203 191 197 195 197 198 189 184 199 210 215 242 227 200 228 248 241 232 200 190 173 178
172 177 179 178 174 167 166 172 178 179 182 188 193 191 189 194 192 197 205 204 205 194 193 191 191 188 190 193 189 209 214 226 253 255 217 240 239 235 264 232 190 186 169
178 175 172 168 169 175 176 176 178 183 187 184 183 191 193 191 195 204 208 201 203 204 197 190 184 191 195 196 195 210 212 207 231 246 221 245 248 262 278 267 239 220 198
159 160 160 169 177 183 185 185 185 189 186 178 180 186 190 193 202 205 202 195 194 198 194 181 185 196 203 204 204 205 208 199 209 212 200 221 204 238 255 250 236 227 218
154 156 160 169 175 180 184 184 187 186 179 175 178 187 197 200 204 203 200 198 192 191 193 188 191 189 187 193 204 199 201 205 212 210 202 207 202 213 230 233 223 203 184
150 160 166 169 168 165 166 164 168 169 171 172 184 200 204 198 196 199 202 200 194 194 195 179 180 186 192 209 208 208 201 199 207 211 205 208 199 208 219 220 208 192 195
161 162 160 162 167 174 174 168 170 172 167 174 190 196 191 189 192 197 196 190 192 189 173 178 180 188 222 236 215 202 201 198 193 205 225 224 207 238 251 248 217 197 199
167 163 162 164 171 177 177 182 182 169 167 177 184 183 185 191 198 194 187 192 191 175 170 189 183 197 227 221 204 201 186 190 189 192 205 230 252 237 259 271 271 265 236
164 166 160 159 168 172 174 182 176 167 170 175 180 181 183 193 196 189 190 194 183 177 185 195 198 190 213 200 198 191 180 182 202 207 203 199 243 263 217 197 343 311 297
164 167 162 154 151 155 168 157 161 167 171 179 181 186 186 192 195 194 197 188 172 179 184 182 182 177 216 188 176 164 157 174 217 226 205 196 207 247 187 138 276 315 312
138 137 133 129 137 160 141 134 145 158 183 190 188 182 183 186 192 194 192 182 170 182 179 184 190 180 181 164 149 156 151 161 220 275 261 221 207 229 180 169 180 269 288
133 128 127 135 163 162 134 136 150 181 195 178 161 155 165 172 174 172 171 164 166 171 176 175 177 166 174 162 136 137 147 181 186 216 265 278 255 241 226 185 202 241 253
139 138 133 142 155 147 141 150 177 193 167 147 147 149 155 154 139 144 165 166 161 163 174 168 165 195 205 172 141 134 151 165 168 213 235 241 230 230 246 227 273 269 289
147 147 143 145 152 160 157 174 201 174 151 142 147 147 134 127 133 146 159 153 159 167 174 173 180 216 238 230 149 137 161 178 190 227 226 213 206 225 245 260 266 287 56
150 151 144 147 166 176 178 190 190 163 149 152 156 145 135 130 109 114 143 158 170 177 176 176 185 198 211 215 220 201 198 193 193 252 293 84 112 35 322 330 346 124 184
161 154 158 166 176 170 185 199 166 144 150 157 157 150 147 152 140 112 117 177 202 193 184 190 186 183 210 236 210 188 203 200 192 157 70 38 30 4 335 326 316 296 334
157 146 155 164 173 166 170 178 151 146 146 151 158 160 155 153 149 137 55 14 327 187 188 198 193 214 221 223 201 192 196 181 151 131 142 197 223 232 241 250 272 267 246